Date,TemperatureHighF,TemperatureAvgF,TemperatureLowF,DewpointHighF,DewpointAvgF,DewpointLowF,HumidityHigh,HumidityAvg,HumidityLow,PressureMaxIn,PressureMinIn,WindSpeedMaxMPH,WindSpeedAvgMPH,GustSpeedMaxMPH,PrecipitationSumIn
2013-9-1,68.8,64.1,54.6,64.6,58.7,52.4,96,83,71,29.99,29.75,13,7,22,0.00
2013-9-2,69.2,58.6,48.5,54.4,51.7,47.4,97,80,52,30.09,29.98,7,4,12,0.01
2013-9-3,80.3,63.6,46.9,67.1,57.3,45.8,97,82,54,30.07,29.96,6,4,9,0.00
2013-9-4,89.0,73.3,59.8,70.3,65.1,58.7,97,78,47,30.06,29.98,5,3,6,0.00
2013-9-5,84.2,73.1,63.9,70.0,66.0,62.1,97,80,59,30.11,30.01,11,5,16,0.00
2013-9-6,88.6,76.0,64.5,71.5,66.6,60.8,89,74,53,30.02,29.79,12,6,20,0.00
2013-9-7,85.9,76.4,67.0,72.6,68.9,65.8,97,79,60,29.91,29.80,10,4,13,0.00
2013-9-8,76.0,69.9,65.5,69.4,66.6,63.8,96,90,73,29.93,29.79,15,8,19,0.00
2013-9-9,89.2,75.9,67.5,71.1,68.3,66.4,98,80,52,29.79,29.60,17,8,22,0.03
2013-9-10,77.3,71.1,64.7,68.6,65.5,63.2,96,83,67,29.96,29.79,3,2,6,0.00
2013-9-11,67.6,66.5,65.6,64.8,64.2,63.2,94,92,90,29.98,29.96,3,2,3,0.00
2013-9-15,61.7,58.4,51.1,55.5,53.4,49.0,93,84,79,30.27,30.09,13,6,17,0.57
2013-9-16,66.8,54.8,44.6,52.6,48.8,43.3,97,82,57,30.36,30.18,11,4,12,0.00
2013-9-17,59.7,55.6,49.9,58.8,53.7,47.9,98,93,89,30.19,29.85,17,12,25,0.00
2013-9-18,87.3,72.0,59.7,71.1,66.6,58.8,98,85,55,29.85,29.58,14,10,20,0.00
2013-9-19,72.8,67.1,56.8,67.8,60.8,50.4,95,81,52,29.86,29.55,12,5,15,0.18
2013-9-20,57.5,52.7,44.9,51.3,47.4,41.6,96,83,60,29.97,29.85,9,5,15,0.00
2013-9-21,69.8,53.3,39.7,48.2,43.8,37.8,95,73,41,30.02,29.86,10,3,11,0.00
2013-9-22,80.1,63.2,49.5,55.3,50.2,45.3,88,66,36,29.88,29.72,17,11,24,0.00
2013-9-23,76.2,63.4,52.8,54.0,50.9,47.7,86,66,38,29.82,29.73,22,13,30,0.00
2013-9-24,67.1,58.3,52.9,56.5,52.4,49.2,91,81,66,29.90,29.82,13,5,13,0.00
2013-9-25,74.4,61.7,49.1,55.0,51.5,47.4,95,72,44,29.91,29.75,17,8,22,0.00
2013-9-26,83.4,68.7,56.1,61.0,57.4,52.8,94,70,43,29.80,29.67,26,17,31,0.00
2013-9-27,82.6,72.6,64.6,63.9,61.2,57.7,90,69,45,29.76,29.65,22,13,29,0.07
2013-9-28,71.6,59.0,46.4,62.0,51.1,41.1,95,76,48,29.93,29.57,19,8,26,0.45
2013-9-29,79.4,60.1,42.5,46.6,43.5,39.5,89,59,27,29.94,29.72,11,6,16,0.00
2013-9-30,80.5,66.8,56.8,52.7,48.3,45.0,68,53,32,29.72,29.53,12,8,20,0.00